Information Letters
Instructions: More Information:

An information letter provides general statements of well-defined law without applying them to a specific set of facts. They are furnished by the IRS National Office in response to requests for general information by taxpayers, by congress-persons on behalf of constituents, or by congress-persons on their own behalf.

More about Information Letters

NOTE: Information letters are advisory only and have no binding effect on the IRS.

  1. Enter a term in the Find Box.
  2. Select a category (column heading) in the drop down.
  3. Click Find.
Find Help

2,601 - 2,800 of 2,924 files Show per page:  25 50 100 200 « Previous | 10 11 12 13 14 15 | Next » 
Number Not sorted Help on Number UILC Not sorted Help on UILC Subject Not sorted Help on Subject Released Sorted Ascending Help on Released
2011-0084 9999.98-00 Not Able to Identify Under Present List 07/29/2012
2011-0094 501.14-00 Credit Unions 07/29/2012
2011-0097 9999.98-00 Not Able to Identify Under Present List 07/29/2012
2011-0100 3121.01-10 Domestic Service 07/29/2012
2012-0002 501.03-00 Religious, Charitable, etc., Institutions and Community Chest 07/29/2012
2012-0003 3121.00-00 Definitions 07/29/2012
2012-0007 30B.00-00 Alternative Technology Motor Vehicles Credit (incl. qualified fuel cell, advanced lean burn technology, hybrid, and alternative fuel vehicles) 07/29/2012
2012-0009 61.00-00; 131.00-00 Gross Income v. Not Gross Income; Certain Foster Care Payments 07/29/2012
2012-0016 3121.05-00; 6413.02-00 Employer v. Not an Employer; Overpayments of Tax 07/29/2012
2002-0006 3401-01-05 Shipping and Air Transportation ISP - Federal Income Tax Withholding on Compensation Paid to Nonresident Alien Crew by a Foreign Transportation Entity 08/12/2012
2003-0262 1362.00-00 Election by Small Business Corporation 08/12/2012
2012-0010 61.40-00; 108.01-03 Governmental Benefits and Subsidies; Qualified Business Indebtedness (Repealed 1986) 08/12/2012
2012-0012 61.00-00; 61.22-00; 108.00-00; 108.01-03 Gross Income v. Not Gross Income; Discharge of Indebtedness; Income From Discharge of Indebtedness; Qualified Business Indebtedness (Repealed 1986) 08/12/2012
2012-0013 263.00-00 Capital Expenditures (Deductible v. Not Deductible) 08/12/2012
2012-0015 6050H.00-00; 6721.00-00; 6722.00-00 Returns Relating to Mortgage Interest Received in Trade or Business from Individuals; Failure to File Certain Information Returns (See Also 6652.00-00); Failure to Furnish Certain Payee Statements 08/12/2012
2012-0017 9300.40-00 Conservation Easements 08/12/2012
2012-0023 501.03-29 Dealing in Oil and Gas Properties 08/23/2012
2012-0024 513.00-00 Unrelated v. Not Unrelated Trade or Business 08/23/2012
2012-0025 165.00-00 Deductions For Losses 08/23/2012
2012-0026 165.00-00 Deductions For Losses 08/23/2012
2012-0027 165.00-00 Deductions For Losses 08/23/2012
2012-0028 351.00-00; 368.00-00 Transfer to Corporation Controlled by Transferor; Definitions Relating to Corporate Reorganizations 08/23/2012
2012-0029 165.00-00 Deductions For Losses 08/23/2012
2012-0030 61.00-00; 131.00-00 Gross Income v. Not Gross Income; Certain Foster Care Payments 08/23/2012
2012-0031 3302.00-00 Credits Against Tax for Contributions to State Unemployment Funds 08/23/2012
2012-0032 3121.16-02 Nonqualified Deferred Compensation Plans 08/23/2012
2012-0033 165.00-00 Deductions For Losses 08/23/2012
2012-0034 61.00-00; 451.00-00; 461.00-00 Gross Income v. Not Gross Income; General Rule for Taxable Year of Inclusion (Year Received v. Not Year Received); General Rule for Taxable Year of Deduction (Year Paid v. Not Year Paid) 08/23/2012
2012-0035 1402.01-01 Rentals from Real Estate 08/23/2012
2012-0036 1033.00-00 Involuntary Conversion 08/23/2012
2012-0037 86.00-00 Social Security and Tier 1 Railroad Retirement Benefits 08/23/2012
2012-0038 25D.00-00 Residential Energy Efficient Property 08/23/2012
2012-0039 451.00-00 General Rule for Taxable Year of Inclusion (Year Received v. Not Year Received) 08/23/2012
2012-0040 167.03-00 Reasonable Allowance 08/23/2012
2012-0041 165.11-00 Other 08/23/2012
2012-0042 170.00-00 Charitable, Etc. Contributions and Gifts 08/23/2012
2012-0043 165.00-00 Deductions For Losses 08/23/2012
2012-0044 414.07-00 Governmental Plan 10/18/2012
2012-0045 414.07-00 Governmental Plan 10/18/2012
2012-0046 414.07-00 Governmental Plan 10/18/2012
2012-0047 414.07-00 Governmental Plan 10/18/2012
2012-0048 414.07-00 Governmental Plan 10/18/2012
2012-0049 414.07-00 Governmental Plan 10/18/2012
2012-0050 414.07-00 Governmental Plan 10/18/2012
2012-0052 414.07-00 Governmental Plan 10/18/2012
2012-0053 414.07-00 Governmental Plan 10/18/2012
2012-0054 414.07-00 Governmental Plan 10/18/2012
2012-0055 62.02-00 Trade and Business Deductions of Employees 10/18/2012
2012-0056 9999.98-00 Not Able to Identify Under Present List 10/18/2012
2012-0057 61.00-00; 131.00-00 Gross Income v. Not Gross Income; Certain Foster Care Payments 10/18/2012
2012-0058 165.11-00 Other 10/18/2012
2012-0059 3402.06-00 Supplemental Payments 10/18/2012
2012-0060 170.09-01 United States, States, Political Subdivisions, Etc. 10/18/2012
2012-0061 1362.02-01 Revocation 10/18/2012
2012-0062 1362.00-00; 1362.02-00; 1362.02-01 Election by Small Business Corporation; Termination of Election; Revocation 10/18/2012
2012-0063 3402.05-00; 3402.06-00 Withholding Exemptions and Exemption Certificates; Supplemental Payments 10/18/2012
2012-0051 414.07-00 Governmental Plan 01/04/2013
2012-0064 501.03-00; 501.03-20 Religious, Charitable, etc., Institutions and Community Chest; Religious Organizations 01/04/2013
2012-0065 9999.98-00 Not Able to Identify Under Present List 01/04/2013
2012-0066 9999.98-00 Not Able to Identify Under Present List 01/04/2013
2012-0067 3121.00-00 Definitions 01/04/2013
2012-0068 9999.98-00 Not Able to Identify Under Present List 01/04/2013
2012-0069 3121.04-00 Employees 01/04/2013
2012-0070 168.35-00 Retirements 01/04/2013
2012-0071 3121.02-10 Student Employee of School, etc. 01/04/2013
2012-0072 152.08-02 Release of Exemption 01/04/2013
2013-0001 501.03-00 Religious, Charitable, etc., Institutions and Community Chest 04/10/2013
2013-0002 501.03-00 Religious, Charitable, etc., Institutions and Community Chest 04/10/2013
2013-0003 501.03-00 Religious, Charitable, etc., Institutions and Community Chest 04/10/2013
2013-0004 6033.00-00 Returns by Exempt Organizations (Section 501 Organizations) 04/10/2013
2013-0005 9999.98-00 Not Able to Identify Under Present List 04/10/2013
2013-0006 501.03-00 Religious, Charitable, etc., Institutions and Community Chest 04/10/2013
2013-0007 61.00-00; 102.00-00 Gross Income v. Not Gross Income; Gifts and Inheritances 04/10/2013
2013-0008 61.00-00; 102.00-00 Gross Income v. Not Gross Income; Gifts and Inheritances 04/10/2013
2013-0009 61.00-00; 111.00-00 Gross Income v. Not Gross Income; Recovery of Certain Items Previously Deducted (Excluded v. Not Excluded) 04/10/2013
2013-0010 162.15-02 Cost of Materials 04/10/2013
2013-0011 213.00-00 Medical, Dental, etc., Expenses 04/10/2013
2013-0012 9114.03-13 Germany 04/10/2013
2013-0013 61.00-00; 118.00-00 Gross Income v. Not Gross Income; Contributions to the Capital of a Corporation 04/10/2013
2013-0014 170.14-00 Qualified Conservation Contribution 04/10/2013
2013-0015 2501.00-00; 6039F.00-00 Imposition of Gift Tax (Imposed v. Not Imposed);Notice of Large Gifts Received from Foreign Persons; ADMINISTRATION: Authority of officers of Internal Revenue 04/10/2013
2013-0016 1563.01-00 Controlled Groups 07/01/2013
2013-0017 9999.98-00 Not Able to Identify Under Present List 07/01/2013
2013-0018 1001.15-05 Exchange for Stock 07/01/2013
2013-0019 408.06-00 Distributions 07/01/2013
2013-0020 61.00-00; 102.00-00 Gross Income v. Not Gross Income; Gifts and Inheritances 07/01/2013
2013-0021 9114.03-13 Germany 07/01/2013
2013-0022 469.00-00 Passive Activity Losses and Credits Limited 07/01/2013
2013-0023 3121.01-00; 3401.01-00; 3402.06-00 Wages; Wages Subject to Withholding; Supplemental Payments; ADMINISTRATION: Authority of officers of Internal Revenue 07/01/2013
2013-0024 9999.98-00 Not Able to Identify Under Present List 10/18/2013
2013-0025 5000A.00-00 Requirement to Maintain Minimum Essential Coverage 10/18/2013
2013-0026 61.00-00 Gross Income v. Not Gross Income 10/18/2013
2013-0027 9999.98-00 Not Able to Identify Under Present List 10/18/2013
2013-0028 9999.98-00 Not Able to Identify Under Present List 10/18/2013
2013-0029 3306.03-01 Services for U.S. or an Instrumentality Excepted 10/18/2013
2013-0030 170.00-00 Charitable, Etc. Contributions and Gifts 10/18/2013
2013-0031 3401.00-00; 3504.00-00 Definitions; Acts to be Performed by Agents 10/18/2013
2013-0032 132.10-00 Transit Passes / Van Pools 10/18/2013
2013-0033 3121.02-08 Services of Ministers or Members of an Order ADMINISTRATION: Authority of officers of Internal Revenue 10/18/2013
2013-0034 402A.00-00 Optional Treatment of Elective Deferrals 01/03/2014
2013-0035 3121.02-00 Employment 01/03/2014
2013-0036 61.22-00; 108.01-03 Discharge of Indebtedness; R 1986 Qualified Business Indebtedness (Repealed 1986) 01/03/2014
2013-0037 6041.00-00; 6041.03-00 Information at Source; Fixed or Determinable Gains, Profits, or Income ADMINISTRATION: Authority of officers of Internal Revenue 01/03/2014
2014-0001 4945.04-06 Expenditure Responsibility 03/31/2014
2014-0002 1001.00-00; 61.22-00 Determination of Amount of and Recognition of Gain or Loss; Discharge of Indebtedness 03/31/2014
2014-0003 408.08-00 Tax Treatment of Accounts and Annuities 03/31/2014
2014-0004 3121.02-10 Student Employee of School, etc. 03/31/2014
2014-0005 213.00-00 Medical, Dental, etc., Expenses 03/31/2014
2014-0006 901.01-00 Allowance of Credit 03/31/2014
2014-0007 71.00-00 Alimony--Separate Maintenance Payments 03/31/2014
2014-0008 115.00-00 Income of States, Municipalities, etc. 03/31/2014
2014-0009 71.00-00 Alimony--Separate Maintenance Payments 03/31/2014
2014-0010 6041.00-00 Information at Source 03/31/2014
2014-0011 508.02-00 Exceptions 03/31/2014
2014-0012 106.00-00 Contribution by Employer to Accident and Health Plans (Excluded v. Not Excluded) 07/01/2014
2014-0013 1001.00-00;401.29-01 Determination of Amount of and Recognition of Gain or Loss; Special Antidiscrimination Rules 07/01/2014
2014-0014 61.00-00; 104.00-00; 162.00-00 Gross Income v. Not Gross Income; Compensation for Injuries and Sickness (Excluded v. Not Excluded); Trade or Business (Deductible v. Not Deductible) 07/01/2014
2014-0015 61.22-00 Discharge of Indebtedness 07/01/2014
2014-0016 117.00-00 Qualified Scholarships 07/01/2014
2014-0017 132.08-04 Parking 07/01/2014
2014-0018 61.22-00 Discharge of Indebtedness 07/01/2014
2014-0019 1.00-00; 2.00-00; 7703.00-00 Tax Imposed; Definitions and Special Rules; Determination of Marital Status 07/01/2014
2014-0020 1001.00-00 Determination of Amount of and Recognition of Gain or Loss 07/01/2014
2014-0021 3121.02-10 Student Employee of School, etc. 07/01/2014
2014-0022 3302.00-00; 3306.01-00 Credits Against Tax for Contributions to State Unemployment Funds; Employers 07/01/2014
2014-0023 1502.75-00 Filing Requirements 10/03/2014
2014-0024 61.22-00 Discharge of Indebtedness 10/03/2014
2014-0025 9999.98-00 Not Able to Identify Under Present List 10/03/2014
2014-0026 83.03-01; 457.08-07; 3121.16-02 Substantial Risk of Forfeiture; Substantial Risk of Forfeiture; Nonqualified Deferred Compensation Plans 10/03/2014
2014-0027 3121.02-00 Employment 10/03/2014
2014-0028 132.10-00 Transit Passes / Van Pools 10/03/2014
2014-0029 6041.00-00; 61.40-00 Information at Source; Governmental Benefits and Subsidies 10/03/2014
2014-0030 9999.98-00 Not Able to Identify Under Present List 10/03/2014
2014-0031 61.00-00; 102.00-00 Gross Income v. Not Gross Income; Gifts and Inheritances 10/03/2014
2014-0032 104.03-00 Damages 10/03/2014
2014-0033 7701.21-00; 877.00-00; 877A.00-00 Definition of Resident Alien; Expatriation to Avoid Tax; Mark-to-Market Regime for Expatriation 10/03/2014
2014-0034 336.00-00; 337.00-00 Gain or Loss Recognized on Property Distributed in Complete Liquidation; Gain or Loss on Sale or Exchange in Connection With Certain Liquidations (UIL for Transaction Prior to 1986 Act Effective Dates 10/03/2014
2014-0035 61.00-00; 104.00-00 Gross Income v. Not Gross Income; Compensation for Injuries and Sickness (Excluded v. Not Excluded) 10/03/2014
2014-0036 1362.01-02; 1362.02-01 Election After Termination; Revocation 10/03/2014
2014-0037 105.00-00 Accident and Health Plans (Excluded v. Not Excluded) 01/14/2015
2014-0038 107.00-00 Rental Value of Parsonage (Excluded v. Not Excluded) 01/14/2015
2014-0039 105.00-00 Accident and Health Plans (Excluded v. Not Excluded) 01/14/2015
2014-0040 36B.00-00 Refundable Credit for Coverage under a Qualified Health Plan 01/14/2015
2014-0041 9999.98-00 Not Able to Identify Under Present List 01/14/2015
2014-0042 36B.00-00 Refundable Credit for Coverage under a Qualified Health Plan 01/14/2015
2014-0043 61.00-00; 102.00-00 Gross Income v. Not Gross Income; Gifts and Inheritances 01/14/2015
2014-0044 1.00-00 Tax Imposed 01/14/2015
2014-0045 61.00-00; 9999.98-00 Gross Income v. Not Gross Income; Not Able to Identify Under Present List 01/14/2015
2015-0001 1397.00-00 Empowerment Zone - Other definitions and special rules 03/27/2015
2015-0002 179.00-00 Election to Expense Certain Depreciable Business Assets 03/27/2015
2015-0003 457.07-02 Unforeseeable Emergency 03/27/2015
2015-0004 132.10-00 Transit Passes / Van Pools 03/27/2015
2015-0005 3101.00-00; 3121.01-10; 3121.04-09 Rate and Measure of Employee Tax; Domestic Service; Domestic Service 03/27/2015
2015-0006 451.20-00 Cash Method 03/27/2015
2015-0007 61.00-00; 71.00-00 Gross Income v. Not Gross Income; Alimony--Separate Maintenance Payments 03/27/2015
2015-0008 63.00-00 Taxable Income Defined 03/27/2015
2015-0009 274.08-00 Substantiation 03/27/2015
2015-0010 61.00-00; 9999.98-00 Gross Income v. Not Gross Income; Not Able to Identify Under Present List 03/27/2015
2015-0011 61.00-00; 408.06-00 Gross Income v. Not Gross Income; Distributions 03/27/2015
2015-0012 408.06-00 Distributions 03/27/2015
2015-0013 4371.00-00 Foreign Insurers Policies Tax (Taxable v. Not Taxable) 07/06/2015
2015-0014 36B.00-00 Refundable Credit for Coverage under a Qualified Health Plan 07/06/2015
2015-0015 408.03-00 Rollover Contributions 07/06/2015
2015-0016 36B.00-00 Refundable Credit for Coverage under a Qualified Health Plan 07/06/2015
2015-0017 402.00-00 Taxability of Beneficiary of Employee's Trust (Time and Manner of Taxation) 07/06/2015
2015-0018 671.02-00 Persons Treated as Grantors 07/06/2015
2015-0019 152.00-00 Dependent Defined 07/06/2015
2015-0020 61.40-00 Governmental Benefits and Subsidies 07/06/2015
2015-0021 402.08-01 Rollover Lump Sums 07/06/2015
2015-0022 401.11-00 Commencement of Benefits Under Qualified Trusts 09/29/2015
2015-0023 401.11-00 Commencement of Benefits Under Qualified Trusts 09/29/2015
2015-0024 36B.00-00 Refundable Credit for Coverage under a Qualified Health Plan 09/29/2015
2015-0025 131.00-00 Certain Foster Care Payments 09/29/2015
2015-0026 131.00-00 Certain Foster Care Payments 15-0027.pdf 97 09/25/2015 Index Number: 671.00-00 2015-0027 Trust Income, Deductions, and Credits Attributable to Grantors and OthersAs Substantial Owners 09/29/2015
2015-0028 671.00-00 Trust Income, Deductions, and Credits Attributable to Grantors and OthersAs Substantial Owners 09/29/2015
2015-0029 1362.01-03 Late Elections 09/29/2015
2015-0030 6050.00-00 R 1979 Returns Relating to Certain Transfers to Exempt Organizations 09/29/2015
2015-0027 671.00-00 Trust Income, Deductions, and Credits Attributable to Grantors and OthersAs Substantial Owners 10/02/2015
2015-0031 263.00-00 Capital Expenditures (Deductible v. Not Deductible) 01/05/2016
2015-0032 131.00-00 Certain Foster Care Payments 01/05/2016
2015-0033 5000A.00-00 Requirement to Maintain Minimum Essential Coverage 01/05/2016
2015-0034 61.40-00 Governmental Benefits and Subsidies 01/05/2016
2015-0035 408.03-00 Rollover Contributions 01/05/2016
2015-0037 412.06-00 Minimum Funding Waiver 01/05/2016
2015-0038 1502.00-00; 1502.75-00 Regulations Governing Consolidated Returns (May v. May Not File Consolidated Returns); Filing Requirements 01/05/2016
2015-0039 7701.03-08 Ordinary Trusts 01/05/2016
2015-0040 131.00-00; 6041.00-00 Certain Foster Care Payments; Information at Source 01/05/2016
2015-0041 132.10-00 Transit Passes / Van Pools 01/05/2016
2015-0042 408.00-00 Individual Retirement Accounts 01/05/2016
2015-0043 408.00-00; 219.05-04 Individual Retirement Accounts; Time When Contributions Deemed Made 01/05/2016
2015-0044 671.02-00 Persons Treated as Grantors 01/05/2016
2015-0045 9114.03-55 Portugal 01/05/2016
2015-0046 1031.00-00 Exchange of Property Held for Productive Use or Investment 01/05/2016
2016-0001 125.00-00 Cafeteria Plans 03/29/2016
2016-0002 223.00-00 Health Savings Accounts 03/29/2016
2016-0003 223.00-00 Health Savings Accounts 03/29/2016
2016-0004 132.10-00 Transit Passes / Van Pools 03/29/2016
2016-0005 9831.00-00 Exceptions to the Applicability of Chapter 100 03/29/2016
2016-0006 104.02-00 Workmen's Compensation 03/29/2016
2016-0007 132.10-00 Transit Passes / Van Pools 03/29/2016

Official Adobe Website
Get Adobe ® Reader